Year,Month,Day,Hour,Minute,Value (Times are PST for temperature in C)
2021,04,16,00,00,9.60
2021,04,16,00,01,9.50
2021,04,16,00,02,9.50
2021,04,16,00,03,9.40
2021,04,16,00,04,9.40
2021,04,16,00,05,9.30
2021,04,16,00,06,9.20
2021,04,16,00,07,9.20
2021,04,16,00,08,9.20
2021,04,16,00,09,9.20
2021,04,16,00,10,9.20
2021,04,16,00,11,9.10
2021,04,16,00,12,9.10
2021,04,16,00,13,9.00
2021,04,16,00,14,9.00
2021,04,16,00,15,9.00
2021,04,16,00,16,9.00
2021,04,16,00,17,9.00
2021,04,16,00,18,9.00
2021,04,16,00,19,9.00
2021,04,16,00,20,9.00
2021,04,16,00,21,9.10
2021,04,16,00,22,9.10
2021,04,16,00,23,9.10
2021,04,16,00,24,9.20
2021,04,16,00,25,9.20
2021,04,16,00,26,9.30
2021,04,16,00,27,9.30
2021,04,16,00,28,9.40
2021,04,16,00,29,9.40
2021,04,16,00,30,9.40
2021,04,16,00,31,9.40
2021,04,16,00,32,9.40
2021,04,16,00,33,9.40
2021,04,16,00,34,9.40
2021,04,16,00,35,9.40
2021,04,16,00,36,9.30
2021,04,16,00,37,9.30
2021,04,16,00,38,9.30
2021,04,16,00,39,9.20
2021,04,16,00,40,9.20
2021,04,16,00,41,9.20
2021,04,16,00,42,9.20
2021,04,16,00,43,9.20
2021,04,16,00,44,9.20
2021,04,16,00,45,9.10
2021,04,16,00,46,9.10
2021,04,16,00,47,9.10
2021,04,16,00,48,9.10
2021,04,16,00,49,9.10
2021,04,16,00,50,9.10
2021,04,16,00,51,9.20
2021,04,16,00,52,9.20
2021,04,16,00,53,9.20
2021,04,16,00,54,9.20
2021,04,16,00,55,9.20
2021,04,16,00,56,9.20
2021,04,16,00,57,9.30
2021,04,16,00,58,9.30
2021,04,16,00,59,9.30
2021,04,16,01,00,9.40
2021,04,16,01,01,9.40
2021,04,16,01,02,9.50
2021,04,16,01,03,9.50
2021,04,16,01,04,9.50
2021,04,16,01,05,9.50
2021,04,16,01,06,9.60
2021,04,16,01,07,9.60
2021,04,16,01,08,9.70
2021,04,16,01,09,9.70
2021,04,16,01,10,9.70
2021,04,16,01,11,9.70
2021,04,16,01,12,9.80
2021,04,16,01,13,9.80
2021,04,16,01,14,9.90
2021,04,16,01,15,9.90
2021,04,16,01,16,9.90
2021,04,16,01,17,10.00
2021,04,16,01,18,10.10
2021,04,16,01,19,10.10
2021,04,16,01,20,10.10
2021,04,16,01,21,10.20
2021,04,16,01,22,10.30
2021,04,16,01,23,10.30
2021,04,16,01,24,10.40
2021,04,16,01,25,10.40
2021,04,16,01,26,10.40
2021,04,16,01,27,10.50
2021,04,16,01,28,10.60
2021,04,16,01,29,10.60
2021,04,16,01,30,10.60
2021,04,16,01,31,10.60
2021,04,16,01,32,10.50
2021,04,16,01,33,10.40
2021,04,16,01,34,10.40
2021,04,16,01,35,10.40
2021,04,16,01,36,10.40
2021,04,16,01,37,10.40
2021,04,16,01,38,10.40
2021,04,16,01,39,10.30
2021,04,16,01,40,10.30
2021,04,16,01,41,10.30
2021,04,16,01,42,10.30
2021,04,16,01,43,10.30
2021,04,16,01,44,10.30
2021,04,16,01,45,10.30
2021,04,16,01,46,10.30
2021,04,16,01,47,10.30
2021,04,16,01,48,10.30
2021,04,16,01,49,10.30
2021,04,16,01,50,10.30
2021,04,16,01,51,10.30
2021,04,16,01,52,10.30
2021,04,16,01,53,10.30
2021,04,16,01,54,10.40
2021,04,16,01,55,10.40
2021,04,16,01,56,10.40
2021,04,16,01,57,10.40
2021,04,16,01,58,10.40
2021,04,16,01,59,10.40
2021,04,16,02,00,10.40
2021,04,16,02,01,10.40
2021,04,16,02,02,10.40
2021,04,16,02,03,10.40
2021,04,16,02,04,10.40
2021,04,16,02,05,10.40
2021,04,16,02,06,10.30
2021,04,16,02,07,10.30
2021,04,16,02,08,10.30
2021,04,16,02,09,10.30
2021,04,16,02,10,10.20
2021,04,16,02,11,10.20
2021,04,16,02,12,10.10
2021,04,16,02,13,10.10
2021,04,16,02,14,10.00
2021,04,16,02,15,9.90
2021,04,16,02,16,9.90
2021,04,16,02,17,9.80
2021,04,16,02,18,9.80
2021,04,16,02,19,9.70
2021,04,16,02,20,9.70
2021,04,16,02,21,9.70
2021,04,16,02,22,9.60
2021,04,16,02,23,9.60
2021,04,16,02,24,9.50
2021,04,16,02,25,9.40
2021,04,16,02,26,9.40
2021,04,16,02,27,9.30
2021,04,16,02,28,9.30
2021,04,16,02,29,9.20
2021,04,16,02,30,9.20
2021,04,16,02,31,9.20
2021,04,16,02,32,9.10
2021,04,16,02,33,9.00
2021,04,16,02,34,9.00
2021,04,16,02,35,8.90
2021,04,16,02,36,8.80
2021,04,16,02,37,8.70
2021,04,16,02,38,8.70
2021,04,16,02,39,8.70
2021,04,16,02,40,8.60
2021,04,16,02,41,8.50
2021,04,16,02,42,8.50
2021,04,16,02,43,8.40
2021,04,16,02,44,8.40
2021,04,16,02,45,8.40
2021,04,16,02,46,8.40
2021,04,16,02,47,8.40
2021,04,16,02,48,8.40
2021,04,16,02,49,8.40
2021,04,16,02,50,8.40
2021,04,16,02,51,8.50
2021,04,16,02,52,8.50
2021,04,16,02,53,8.50
2021,04,16,02,54,8.60
2021,04,16,02,55,8.60
2021,04,16,02,56,8.60
2021,04,16,02,57,8.70
2021,04,16,02,58,8.70
2021,04,16,02,59,8.70
2021,04,16,03,00,8.70
2021,04,16,03,01,8.70
2021,04,16,03,02,8.70
2021,04,16,03,03,8.80
2021,04,16,03,04,8.80
2021,04,16,03,05,8.80
2021,04,16,03,06,8.90
2021,04,16,03,07,8.90
2021,04,16,03,08,8.90
2021,04,16,03,09,8.90
2021,04,16,03,10,8.90
2021,04,16,03,11,8.90
2021,04,16,03,12,8.80
2021,04,16,03,13,8.80
2021,04,16,03,14,8.80
2021,04,16,03,15,8.70
2021,04,16,03,16,8.70
2021,04,16,03,17,8.70
2021,04,16,03,18,8.70
2021,04,16,03,19,8.70
2021,04,16,03,20,8.70
2021,04,16,03,21,8.70
2021,04,16,03,22,8.70
2021,04,16,03,23,8.80
2021,04,16,03,24,8.80
2021,04,16,03,25,8.80
2021,04,16,03,26,8.80
2021,04,16,03,27,8.80
2021,04,16,03,28,8.80
2021,04,16,03,29,8.70
2021,04,16,03,30,8.70
2021,04,16,03,31,8.70
2021,04,16,03,32,8.70
2021,04,16,03,33,8.70
2021,04,16,03,34,8.70
2021,04,16,03,35,8.70
2021,04,16,03,36,8.60
2021,04,16,03,37,8.60
2021,04,16,03,38,8.60
2021,04,16,03,39,8.60
2021,04,16,03,40,8.60
2021,04,16,03,41,8.60
2021,04,16,03,42,8.60
2021,04,16,03,43,8.60
2021,04,16,03,44,8.60
2021,04,16,03,45,8.60
2021,04,16,03,46,8.60
2021,04,16,03,47,8.60
2021,04,16,03,48,8.70
2021,04,16,03,49,8.70
2021,04,16,03,50,8.70
2021,04,16,03,51,8.80
2021,04,16,03,52,8.90
2021,04,16,03,53,8.90
2021,04,16,03,54,8.90
2021,04,16,03,55,8.90
2021,04,16,03,56,8.90
2021,04,16,03,57,8.90
2021,04,16,03,58,8.90
2021,04,16,03,59,8.90
2021,04,16,04,00,8.80
2021,04,16,04,01,8.80
2021,04,16,04,02,8.70
2021,04,16,04,03,8.70
2021,04,16,04,04,8.70
2021,04,16,04,05,8.60
2021,04,16,04,06,8.60
2021,04,16,04,07,8.60
2021,04,16,04,08,8.50
2021,04,16,04,09,8.50
2021,04,16,04,10,8.50
2021,04,16,04,11,8.40
2021,04,16,04,12,8.40
2021,04,16,04,13,8.40
2021,04,16,04,14,8.40
2021,04,16,04,15,8.40
2021,04,16,04,16,8.40
2021,04,16,04,17,8.40
2021,04,16,04,18,8.40
2021,04,16,04,19,8.50
2021,04,16,04,20,8.50
2021,04,16,04,21,8.50
2021,04,16,04,22,8.60
2021,04,16,04,23,8.60
2021,04,16,04,24,8.70
2021,04,16,04,25,8.70
2021,04,16,04,26,8.70
2021,04,16,04,27,8.80
2021,04,16,04,28,8.90
2021,04,16,04,29,8.90
2021,04,16,04,30,9.00
2021,04,16,04,31,9.00
2021,04,16,04,32,9.00
2021,04,16,04,33,9.00
2021,04,16,04,34,9.00
2021,04,16,04,35,9.00
2021,04,16,04,36,9.00
2021,04,16,04,37,9.00
2021,04,16,04,38,9.00
2021,04,16,04,39,9.00
2021,04,16,04,40,9.00
2021,04,16,04,41,9.10
2021,04,16,04,42,9.10
2021,04,16,04,43,9.10
2021,04,16,04,44,9.10
2021,04,16,04,45,9.10
2021,04,16,04,46,9.10
2021,04,16,04,47,9.20
2021,04,16,04,48,9.20
2021,04,16,04,49,9.20
2021,04,16,04,50,9.20
2021,04,16,04,51,9.20
2021,04,16,04,52,9.30
2021,04,16,04,53,9.30
2021,04,16,04,54,9.40
2021,04,16,04,55,9.40
2021,04,16,04,56,9.50
2021,04,16,04,57,9.60
2021,04,16,04,58,9.60
2021,04,16,04,59,9.70
2021,04,16,05,00,9.70
2021,04,16,05,01,9.70
2021,04,16,05,02,9.70
2021,04,16,05,03,9.70
2021,04,16,05,04,9.70
2021,04,16,05,05,9.70
2021,04,16,05,06,9.70
2021,04,16,05,07,9.80
2021,04,16,05,08,9.80
2021,04,16,05,09,9.80
2021,04,16,05,10,9.80
2021,04,16,05,11,9.80
2021,04,16,05,12,9.90
2021,04,16,05,13,9.90
2021,04,16,05,14,9.90
2021,04,16,05,15,9.90
2021,04,16,05,16,9.90
2021,04,16,05,17,10.00
2021,04,16,05,18,10.10
2021,04,16,05,19,10.10
2021,04,16,05,20,10.10
2021,04,16,05,21,10.10
2021,04,16,05,22,10.20
2021,04,16,05,23,10.20
2021,04,16,05,24,10.30
2021,04,16,05,25,10.30
2021,04,16,05,26,10.40
2021,04,16,05,27,10.40
2021,04,16,05,28,10.40
2021,04,16,05,29,10.40
2021,04,16,05,30,10.40
2021,04,16,05,31,10.40
2021,04,16,05,32,10.40
2021,04,16,05,33,10.40
2021,04,16,05,34,10.40
2021,04,16,05,35,10.40
2021,04,16,05,36,10.40
2021,04,16,05,37,10.50
2021,04,16,05,38,10.60
2021,04,16,05,39,10.60
2021,04,16,05,40,10.60
2021,04,16,05,41,10.60
2021,04,16,05,42,10.60
2021,04,16,05,43,10.60
2021,04,16,05,44,10.60
2021,04,16,05,45,10.60
2021,04,16,05,46,10.60
2021,04,16,05,47,10.60
2021,04,16,05,48,10.60
2021,04,16,05,49,10.60
2021,04,16,05,50,10.60
2021,04,16,05,51,10.60
2021,04,16,05,52,10.60
2021,04,16,05,53,10.60
2021,04,16,05,54,10.60
2021,04,16,05,55,10.60
2021,04,16,05,56,10.60
2021,04,16,05,57,10.60
2021,04,16,05,58,10.60
2021,04,16,05,59,10.60
2021,04,16,06,00,10.60
2021,04,16,06,01,10.60
2021,04,16,06,02,10.60
2021,04,16,06,03,10.50
2021,04,16,06,04,10.40
2021,04,16,06,05,10.40
2021,04,16,06,06,10.40
2021,04,16,06,07,10.40
2021,04,16,06,08,10.40
2021,04,16,06,09,10.40
2021,04,16,06,10,10.40
2021,04,16,06,11,10.40
2021,04,16,06,12,10.40
2021,04,16,06,13,10.40
2021,04,16,06,14,10.40
2021,04,16,06,15,10.40
2021,04,16,06,16,10.30
2021,04,16,06,17,10.30
2021,04,16,06,18,10.20
2021,04,16,06,19,10.20
2021,04,16,06,20,10.20
2021,04,16,06,21,10.10
2021,04,16,06,22,10.10
2021,04,16,06,23,10.10
2021,04,16,06,24,10.00
2021,04,16,06,25,9.90
2021,04,16,06,26,9.90
2021,04,16,06,27,9.90
2021,04,16,06,28,9.90
2021,04,16,06,29,9.90
2021,04,16,06,30,9.90
2021,04,16,06,31,9.90
2021,04,16,06,32,9.90
2021,04,16,06,33,9.90
2021,04,16,06,34,9.90
2021,04,16,06,35,9.80
2021,04,16,06,36,9.80
2021,04,16,06,37,9.80
2021,04,16,06,38,9.80
2021,04,16,06,39,9.80
2021,04,16,06,40,9.80
2021,04,16,06,41,9.80
2021,04,16,06,42,9.80
2021,04,16,06,43,9.90
2021,04,16,06,44,9.90
2021,04,16,06,45,9.90
2021,04,16,06,46,9.90
2021,04,16,06,47,9.90
2021,04,16,06,48,9.90
2021,04,16,06,49,9.90
2021,04,16,06,50,10.10
2021,04,16,06,51,10.10
2021,04,16,06,52,10.10
2021,04,16,06,53,10.10
2021,04,16,06,54,10.20
2021,04,16,06,55,10.20
2021,04,16,06,56,10.20
2021,04,16,06,57,10.30
2021,04,16,06,58,10.30
2021,04,16,06,59,10.30
2021,04,16,07,00,10.30
2021,04,16,07,01,10.30
2021,04,16,07,02,10.30
2021,04,16,07,03,10.30
2021,04,16,07,04,10.30
2021,04,16,07,05,10.30
2021,04,16,07,06,10.30
2021,04,16,07,07,10.30
2021,04,16,07,08,10.30
2021,04,16,07,09,10.30
2021,04,16,07,10,10.30
2021,04,16,07,11,10.30
2021,04,16,07,12,10.40
2021,04,16,07,13,10.40
2021,04,16,07,14,10.40
2021,04,16,07,15,10.40
2021,04,16,07,16,10.40
2021,04,16,07,17,10.40
2021,04,16,07,18,10.40
2021,04,16,07,19,10.50
2021,04,16,07,20,10.60
2021,04,16,07,21,10.60
2021,04,16,07,22,10.60
2021,04,16,07,23,10.60
2021,04,16,07,24,10.60
2021,04,16,07,25,10.70
2021,04,16,07,26,10.70
2021,04,16,07,27,10.70
2021,04,16,07,28,10.80
2021,04,16,07,29,10.80
2021,04,16,07,30,10.90
2021,04,16,07,31,10.90
2021,04,16,07,32,10.90
2021,04,16,07,33,10.90
2021,04,16,07,34,11.00
2021,04,16,07,35,11.10
2021,04,16,07,36,11.10
2021,04,16,07,37,11.10
2021,04,16,07,38,11.10
2021,04,16,07,39,11.10
2021,04,16,07,40,11.10
2021,04,16,07,41,11.20
2021,04,16,07,42,11.20
2021,04,16,07,43,11.20
2021,04,16,07,44,11.20
2021,04,16,07,45,11.20
2021,04,16,07,46,11.20
2021,04,16,07,47,11.20
2021,04,16,07,48,11.20
2021,04,16,07,49,11.30
2021,04,16,07,50,11.30
2021,04,16,07,51,11.30
2021,04,16,07,52,11.30
2021,04,16,07,53,11.30
2021,04,16,07,54,11.40
2021,04,16,07,55,11.40
2021,04,16,07,56,11.40
2021,04,16,07,57,11.40
2021,04,16,07,58,11.40
2021,04,16,07,59,11.40
2021,04,16,08,00,11.50
2021,04,16,08,01,11.60
2021,04,16,08,02,11.60
2021,04,16,08,03,11.60
2021,04,16,08,04,11.60
2021,04,16,08,05,11.50
2021,04,16,08,06,11.50
2021,04,16,08,07,11.40
2021,04,16,08,08,11.40
2021,04,16,08,09,11.40
2021,04,16,08,10,11.40
2021,04,16,08,11,11.40
2021,04,16,08,12,11.40
2021,04,16,08,13,11.50
2021,04,16,08,14,11.50
2021,04,16,08,15,11.60
2021,04,16,08,16,11.60
2021,04,16,08,17,11.60
2021,04,16,08,18,11.60
2021,04,16,08,19,11.70
2021,04,16,08,20,11.80
2021,04,16,08,21,11.80
2021,04,16,08,22,11.90
2021,04,16,08,23,11.90
2021,04,16,08,24,12.00
2021,04,16,08,25,12.10
2021,04,16,08,26,12.20
2021,04,16,08,27,12.30
2021,04,16,08,28,12.30
2021,04,16,08,29,12.40
2021,04,16,08,30,12.40
2021,04,16,08,31,12.50
2021,04,16,08,32,12.60
2021,04,16,08,33,12.60
2021,04,16,08,34,12.70
2021,04,16,08,35,12.80
2021,04,16,08,36,12.80
2021,04,16,08,37,12.80
2021,04,16,08,38,12.90
2021,04,16,08,39,12.90
2021,04,16,08,40,13.00
2021,04,16,08,41,13.10
2021,04,16,08,42,13.10
2021,04,16,08,43,13.10
2021,04,16,08,44,13.20
2021,04,16,08,45,13.20
2021,04,16,08,46,13.20
2021,04,16,08,47,13.30
2021,04,16,08,48,13.30
2021,04,16,08,49,13.30
2021,04,16,08,50,13.30
2021,04,16,08,51,13.40
2021,04,16,08,52,13.50
2021,04,16,08,53,13.50
2021,04,16,08,54,13.60
2021,04,16,08,55,13.60
2021,04,16,08,56,13.60
2021,04,16,08,57,13.60
2021,04,16,08,58,13.70
2021,04,16,08,59,13.70
2021,04,16,09,00,13.70
2021,04,16,09,01,13.70
2021,04,16,09,02,13.80
2021,04,16,09,03,13.90
2021,04,16,09,04,14.00
2021,04,16,09,05,14.10
2021,04,16,09,06,14.20
2021,04,16,09,07,14.20
2021,04,16,09,08,14.30
2021,04,16,09,09,14.40
2021,04,16,09,10,14.50
2021,04,16,09,11,14.60
2021,04,16,09,12,14.70
2021,04,16,09,13,14.70
2021,04,16,09,14,14.80
2021,04,16,09,15,14.90
2021,04,16,09,16,15.00
2021,04,16,09,17,15.00
2021,04,16,09,18,15.10
2021,04,16,09,19,15.20
2021,04,16,09,20,15.20
2021,04,16,09,21,15.30
2021,04,16,09,22,15.30
2021,04,16,09,23,15.40
2021,04,16,09,24,15.40
2021,04,16,09,25,15.50
2021,04,16,09,26,15.50
2021,04,16,09,27,15.60
2021,04,16,09,28,15.60
2021,04,16,09,29,15.60
2021,04,16,09,30,15.70
2021,04,16,09,31,15.70
2021,04,16,09,32,15.80
2021,04,16,09,33,15.80
2021,04,16,09,34,15.80
2021,04,16,09,35,15.80
2021,04,16,09,36,15.80
2021,04,16,09,37,15.80
2021,04,16,09,38,15.90
2021,04,16,09,39,15.90
2021,04,16,09,40,16.00
2021,04,16,09,41,16.10
2021,04,16,09,42,16.10
2021,04,16,09,43,16.10
2021,04,16,09,44,16.10
2021,04,16,09,45,16.10
2021,04,16,09,46,16.10
2021,04,16,09,47,16.10
2021,04,16,09,48,16.20
2021,04,16,09,49,16.20
2021,04,16,09,50,16.30
2021,04,16,09,51,16.30
2021,04,16,09,52,16.30
2021,04,16,09,53,16.30
2021,04,16,09,54,16.30
2021,04,16,09,55,16.40
2021,04,16,09,56,16.40
2021,04,16,09,57,16.50
2021,04,16,09,58,16.60
2021,04,16,09,59,16.60
2021,04,16,10,00,16.60
2021,04,16,10,01,16.70
2021,04,16,10,02,16.70
2021,04,16,10,03,16.70
2021,04,16,10,04,16.70
2021,04,16,10,05,16.70
2021,04,16,10,06,16.70
2021,04,16,10,07,16.80
2021,04,16,10,08,16.80
2021,04,16,10,09,16.80
2021,04,16,10,10,16.80
2021,04,16,10,11,16.80
2021,04,16,10,12,16.90
2021,04,16,10,13,16.90
2021,04,16,10,14,17.00
2021,04,16,10,15,17.00
2021,04,16,10,16,17.10
2021,04,16,10,17,17.10
2021,04,16,10,18,17.20
2021,04,16,10,19,17.20
2021,04,16,10,20,17.30
2021,04,16,10,21,17.30
2021,04,16,10,22,17.30
2021,04,16,10,23,17.30
2021,04,16,10,24,17.40
2021,04,16,10,25,17.40
2021,04,16,10,26,17.50
2021,04,16,10,27,17.50
2021,04,16,10,28,17.60
2021,04,16,10,29,17.60
2021,04,16,10,30,17.60
2021,04,16,10,31,17.60
2021,04,16,10,32,17.70
2021,04,16,10,33,17.70
2021,04,16,10,34,17.70
2021,04,16,10,35,17.70
2021,04,16,10,36,17.70
2021,04,16,10,37,17.80
2021,04,16,10,38,17.80
2021,04,16,10,39,17.90
2021,04,16,10,40,17.90
2021,04,16,10,41,17.90
2021,04,16,10,42,17.90
2021,04,16,10,43,17.90
2021,04,16,10,44,17.90
2021,04,16,10,45,17.90
2021,04,16,10,46,17.90
2021,04,16,10,47,17.90
2021,04,16,10,48,17.90
2021,04,16,10,49,18.10
2021,04,16,10,50,18.10
2021,04,16,10,51,18.20
2021,04,16,10,52,18.20
2021,04,16,10,53,18.20
2021,04,16,10,54,18.20
2021,04,16,10,55,18.20
2021,04,16,10,56,18.30
2021,04,16,10,57,18.30
2021,04,16,10,58,18.30
2021,04,16,10,59,18.30
2021,04,16,11,00,18.30
2021,04,16,11,01,18.40
2021,04,16,11,02,18.40
2021,04,16,11,03,18.40
2021,04,16,11,04,18.40
2021,04,16,11,05,18.40
2021,04,16,11,06,18.40
2021,04,16,11,07,18.40
2021,04,16,11,08,18.40
2021,04,16,11,09,18.40
2021,04,16,11,10,18.30
2021,04,16,11,11,18.40
2021,04,16,11,12,18.40
2021,04,16,11,13,18.40
2021,04,16,11,14,18.50
2021,04,16,11,15,18.60
2021,04,16,11,16,18.70
2021,04,16,11,17,18.70
2021,04,16,11,18,18.80
2021,04,16,11,19,18.90
2021,04,16,11,20,18.90
2021,04,16,11,21,19.00
2021,04,16,11,22,19.10
2021,04,16,11,23,19.10
2021,04,16,11,24,19.10
2021,04,16,11,25,19.10
2021,04,16,11,26,19.10
2021,04,16,11,27,19.10
2021,04,16,11,28,19.10
2021,04,16,11,29,19.10
2021,04,16,11,30,19.10
2021,04,16,11,31,19.10
2021,04,16,11,32,19.10
2021,04,16,11,33,19.20
2021,04,16,11,34,19.30
2021,04,16,11,35,19.20
2021,04,16,11,36,19.20
2021,04,16,11,37,19.20
2021,04,16,11,38,19.20
2021,04,16,11,39,19.20
2021,04,16,11,40,19.30
2021,04,16,11,41,19.30
2021,04,16,11,42,19.40
2021,04,16,11,43,19.40
2021,04,16,11,44,19.40
2021,04,16,11,45,19.50
2021,04,16,11,46,19.50
2021,04,16,11,47,19.60
2021,04,16,11,48,19.60
2021,04,16,11,49,19.60
2021,04,16,11,50,19.60
2021,04,16,11,51,19.60
2021,04,16,11,52,19.60
2021,04,16,11,53,19.60
2021,04,16,11,54,19.50
2021,04,16,11,55,19.40
2021,04,16,11,56,19.40
2021,04,16,11,57,19.40
2021,04,16,11,58,19.50
2021,04,16,11,59,19.50
2021,04,16,12,00,19.50
2021,04,16,12,01,19.50
2021,04,16,12,02,19.50
2021,04,16,12,03,19.50
2021,04,16,12,04,19.50
2021,04,16,12,05,19.50
2021,04,16,12,06,19.60
2021,04,16,12,07,19.60
2021,04,16,12,08,19.60
2021,04,16,12,09,19.60
2021,04,16,12,10,19.70
2021,04,16,12,11,19.70
2021,04,16,12,12,19.80
2021,04,16,12,13,19.90
2021,04,16,12,14,19.90
2021,04,16,12,15,20.10
2021,04,16,12,16,20.10
2021,04,16,12,17,20.20
2021,04,16,12,18,20.20
2021,04,16,12,19,20.20
2021,04,16,12,20,20.30
2021,04,16,12,21,20.40
2021,04,16,12,22,20.40
2021,04,16,12,23,20.40
2021,04,16,12,24,20.40
2021,04,16,12,25,20.40
2021,04,16,12,26,20.40
2021,04,16,12,27,20.40
2021,04,16,12,28,20.40
2021,04,16,12,29,20.40
2021,04,16,12,30,20.50
2021,04,16,12,31,20.50
2021,04,16,12,32,20.60
2021,04,16,12,33,20.60
2021,04,16,12,34,20.70
2021,04,16,12,35,20.70
2021,04,16,12,36,20.80
2021,04,16,12,37,20.80
2021,04,16,12,38,20.90
2021,04,16,12,39,20.90
2021,04,16,12,40,20.90
2021,04,16,12,41,20.90
2021,04,16,12,42,20.90
2021,04,16,12,43,21.00
2021,04,16,12,44,21.00
2021,04,16,12,45,21.00
2021,04,16,12,46,21.00
2021,04,16,12,47,21.00
2021,04,16,12,48,20.90
2021,04,16,12,49,20.90
2021,04,16,12,50,20.90
2021,04,16,12,51,20.90
2021,04,16,12,52,21.00
2021,04,16,12,53,21.00
2021,04,16,12,54,21.00
2021,04,16,12,55,20.90
2021,04,16,12,56,20.90
2021,04,16,12,57,20.90
2021,04,16,12,58,20.90
2021,04,16,12,59,21.00
2021,04,16,13,00,21.00
2021,04,16,13,01,21.10
2021,04,16,13,02,21.20
2021,04,16,13,03,21.30
2021,04,16,13,04,21.30
2021,04,16,13,05,21.40
2021,04,16,13,06,21.40
2021,04,16,13,07,21.40
2021,04,16,13,08,21.40
2021,04,16,13,09,21.40
2021,04,16,13,10,21.40
2021,04,16,13,11,21.30
2021,04,16,13,12,21.30
2021,04,16,13,13,21.30
2021,04,16,13,14,21.30
2021,04,16,13,15,21.40
2021,04,16,13,16,21.40
2021,04,16,13,17,21.50
2021,04,16,13,18,21.60
2021,04,16,13,19,21.60
2021,04,16,13,20,21.60
2021,04,16,13,21,21.70
2021,04,16,13,22,21.70
2021,04,16,13,23,21.80
2021,04,16,13,24,21.90
2021,04,16,13,25,21.90
2021,04,16,13,26,21.90
2021,04,16,13,27,21.90
2021,04,16,13,28,21.90
2021,04,16,13,29,22.00
2021,04,16,13,30,22.10
2021,04,16,13,31,22.10
2021,04,16,13,32,22.10
2021,04,16,13,33,22.10
2021,04,16,13,34,22.10
2021,04,16,13,35,22.10
2021,04,16,13,36,22.00
2021,04,16,13,37,22.00
2021,04,16,13,38,22.00
2021,04,16,13,39,21.90
2021,04,16,13,40,21.80
2021,04,16,13,41,21.70
2021,04,16,13,42,21.70
2021,04,16,13,43,21.70
2021,04,16,13,44,21.60
2021,04,16,13,45,21.60
2021,04,16,13,46,21.60
2021,04,16,13,47,21.70
2021,04,16,13,48,21.70
2021,04,16,13,49,21.70
2021,04,16,13,50,21.70
2021,04,16,13,51,21.80
2021,04,16,13,52,21.80
2021,04,16,13,53,21.90
2021,04,16,13,54,22.00
2021,04,16,13,55,22.00
2021,04,16,13,56,22.10
2021,04,16,13,57,22.10
2021,04,16,13,58,22.00
2021,04,16,13,59,22.00
2021,04,16,14,00,22.00
2021,04,16,14,01,22.00
2021,04,16,14,02,22.00
2021,04,16,14,03,21.90
2021,04,16,14,04,21.80
2021,04,16,14,05,21.90
2021,04,16,14,06,21.90
2021,04,16,14,07,22.00
2021,04,16,14,08,22.10
2021,04,16,14,09,22.10
2021,04,16,14,10,22.20
2021,04,16,14,11,22.20
2021,04,16,14,12,22.20
2021,04,16,14,13,22.20
2021,04,16,14,14,22.20
2021,04,16,14,15,22.30
2021,04,16,14,16,22.20
2021,04,16,14,17,22.20
2021,04,16,14,18,22.20
2021,04,16,14,19,22.20
2021,04,16,14,20,22.20
2021,04,16,14,21,22.20
2021,04,16,14,22,22.20
2021,04,16,14,23,22.20
2021,04,16,14,24,22.20
2021,04,16,14,25,22.20
2021,04,16,14,26,22.20
2021,04,16,14,27,22.10
2021,04,16,14,28,22.10
2021,04,16,14,29,22.00
2021,04,16,14,30,22.10
2021,04,16,14,31,22.10
2021,04,16,14,32,22.10
2021,04,16,14,33,22.10
2021,04,16,14,34,22.10
2021,04,16,14,35,22.00
2021,04,16,14,36,22.00
2021,04,16,14,37,22.00
2021,04,16,14,38,22.00
2021,04,16,14,39,22.00
2021,04,16,14,40,22.00
2021,04,16,14,41,22.00
2021,04,16,14,42,22.00
2021,04,16,14,43,22.10
2021,04,16,14,44,22.10
2021,04,16,14,45,22.20
2021,04,16,14,46,22.20
2021,04,16,14,47,22.30
2021,04,16,14,48,22.40
2021,04,16,14,49,22.40
2021,04,16,14,50,22.40
2021,04,16,14,51,22.40
2021,04,16,14,52,22.50
2021,04,16,14,53,22.50
2021,04,16,14,54,22.50
2021,04,16,14,55,22.60
2021,04,16,14,56,22.60
2021,04,16,14,57,22.60
2021,04,16,14,58,22.50
2021,04,16,14,59,22.40
2021,04,16,15,00,22.40
2021,04,16,15,01,22.40
2021,04,16,15,02,22.40
2021,04,16,15,03,22.40
2021,04,16,15,04,22.40
2021,04,16,15,05,22.50
2021,04,16,15,06,22.50
2021,04,16,15,07,22.50
2021,04,16,15,08,22.60
2021,04,16,15,09,22.60
2021,04,16,15,10,22.60
2021,04,16,15,11,22.60
2021,04,16,15,12,22.60
2021,04,16,15,13,22.70
2021,04,16,15,14,22.60
2021,04,16,15,15,22.60
2021,04,16,15,16,22.60
2021,04,16,15,17,22.60
2021,04,16,15,18,22.50
2021,04,16,15,19,22.50
2021,04,16,15,20,22.50
2021,04,16,15,21,22.50
2021,04,16,15,22,22.50
2021,04,16,15,23,22.50
2021,04,16,15,24,22.60
2021,04,16,15,25,22.60
2021,04,16,15,26,22.60
2021,04,16,15,27,22.60
2021,04,16,15,28,22.70
2021,04,16,15,29,22.70
2021,04,16,15,30,22.80
2021,04,16,15,31,22.80
2021,04,16,15,32,22.80
2021,04,16,15,33,22.80
2021,04,16,15,34,22.70
2021,04,16,15,35,22.70
2021,04,16,15,36,22.60
2021,04,16,15,37,22.60
2021,04,16,15,38,22.60
2021,04,16,15,39,22.60
2021,04,16,15,40,22.60
2021,04,16,15,41,22.60
2021,04,16,15,42,22.60
2021,04,16,15,43,22.50
2021,04,16,15,44,22.50
2021,04,16,15,45,22.50
2021,04,16,15,46,22.60
2021,04,16,15,47,22.60
2021,04,16,15,48,22.60
2021,04,16,15,49,22.60
2021,04,16,15,50,22.60
2021,04,16,15,51,22.70
2021,04,16,15,52,22.70
2021,04,16,15,53,22.70
2021,04,16,15,54,22.70
2021,04,16,15,55,22.70
2021,04,16,15,56,22.60
2021,04,16,15,57,22.60
2021,04,16,15,58,22.60
2021,04,16,15,59,22.50
2021,04,16,16,00,22.50
2021,04,16,16,01,22.40
2021,04,16,16,02,22.30
2021,04,16,16,03,22.30
2021,04,16,16,04,22.20
2021,04,16,16,05,22.10
2021,04,16,16,06,22.00
2021,04,16,16,07,22.00
2021,04,16,16,08,21.90
2021,04,16,16,09,21.80
2021,04,16,16,10,21.80
2021,04,16,16,11,21.70
2021,04,16,16,12,21.60
2021,04,16,16,13,21.60
2021,04,16,16,14,21.60
2021,04,16,16,15,21.50
2021,04,16,16,16,21.40
2021,04,16,16,17,21.30
2021,04,16,16,18,21.30
2021,04,16,16,19,21.30
2021,04,16,16,20,21.30
2021,04,16,16,21,21.20
2021,04,16,16,22,21.20
2021,04,16,16,23,21.10
2021,04,16,16,24,21.10
2021,04,16,16,25,21.10
2021,04,16,16,26,21.00
2021,04,16,16,27,21.00
2021,04,16,16,28,20.90
2021,04,16,16,29,20.90
2021,04,16,16,30,20.90
2021,04,16,16,31,20.80
2021,04,16,16,32,20.80
2021,04,16,16,33,20.80
2021,04,16,16,34,20.80
2021,04,16,16,35,20.70
2021,04,16,16,36,20.70
2021,04,16,16,37,20.70
2021,04,16,16,38,20.60
2021,04,16,16,39,20.60
2021,04,16,16,40,20.60
2021,04,16,16,41,20.60
2021,04,16,16,42,20.60
2021,04,16,16,43,20.60
2021,04,16,16,44,20.60
2021,04,16,16,45,20.60
2021,04,16,16,46,20.50
2021,04,16,16,47,20.50
2021,04,16,16,48,20.50
2021,04,16,16,49,20.50
2021,04,16,16,50,20.50
2021,04,16,16,51,20.50
2021,04,16,16,52,20.50
2021,04,16,16,53,20.40
2021,04,16,16,54,20.40
2021,04,16,16,55,20.40
2021,04,16,16,56,20.40
2021,04,16,16,57,20.40
2021,04,16,16,58,20.40
2021,04,16,16,59,20.40
2021,04,16,17,00,20.30
2021,04,16,17,01,20.30
2021,04,16,17,02,20.30
2021,04,16,17,03,20.30
2021,04,16,17,04,20.30
2021,04,16,17,05,20.20
2021,04,16,17,06,20.20
2021,04,16,17,07,20.20
2021,04,16,17,08,20.20
2021,04,16,17,09,20.20
2021,04,16,17,10,20.20
2021,04,16,17,11,20.20
2021,04,16,17,12,20.20
2021,04,16,17,13,20.20
2021,04,16,17,14,20.20
2021,04,16,17,15,20.10
2021,04,16,17,16,20.10
2021,04,16,17,17,20.10
2021,04,16,17,18,20.10
2021,04,16,17,19,20.10
2021,04,16,17,20,20.10
2021,04,16,17,21,20.10
2021,04,16,17,22,20.10
2021,04,16,17,23,20.00
2021,04,16,17,24,19.90
2021,04,16,17,25,19.90
2021,04,16,17,26,19.90
2021,04,16,17,27,19.90
2021,04,16,17,28,19.90
2021,04,16,17,29,19.90
2021,04,16,17,30,19.90
2021,04,16,17,31,19.90